DW1384 Weather Reports


time (UTC)temp
C
wind
direction
speed
KPH
gust
KPH
rain 1hr
cm
rain 24hr
cm
rain mn
cm
humidity
%
barometer
mb
20260905201243 12 154 0.0 0.0 0.00 0.00 0.00 84 1025.5
20260905200741 12 163 0.0 0.0 0.00 0.00 0.00 83 1025.4
20260905200240 12 163 0.0 0.0 0.00 0.00 0.00 83 1025.3
20260905195737 12 163 0.0 0.0 0.00 0.00 0.00 83 1025.3
20260905195238 12 163 0.0 0.0 0.00 0.00 0.00 83 1025.3
20260905194738 12 163 0.0 0.0 0.00 0.00 0.00 82 1025.2
20260905194456 13 163 0.0 0.0 0.00 0.00 0.00 82 1025.1
20260905193728 13 163 0.0 0.0 0.00 0.00 0.00 81 1025.1
20260905193455 13 163 0.0 0.0 0.00 0.00 0.00 80 1025.1
20260905192725 13 163 0.0 0.0 0.00 0.00 0.00 79 1025.0
20260905192226 13 163 0.0 0.0 0.00 0.00 0.00 78 1025.0
20260905191726 14 163 0.0 0.0 0.00 0.00 0.00 77 1025.0
20260905191703 14 163 0.0 0.0 0.00 0.00 0.00 76 1024.9
20260905190723 15 163 0.0 0.0 0.00 0.00 0.00 75 1024.8
20260905190223 15 190 0.0 0.0 0.00 0.00 0.00 74 1024.8
20260905190207 15 272 0.0 0.0 0.00 0.00 0.00 72 1024.7
20260905185219 16 272 0.0 0.0 0.00 0.00 0.00 70 1024.8
20260905184717 16 264 0.0 0.0 0.00 0.00 0.00 70 1024.7
20260905184446 16 301 0.0 0.0 0.00 0.00 0.00 69 1024.6
20260905183716 16 251 0.0 0.0 0.00 0.00 0.00 68 1024.5
20260905183214 16 253 0.0 0.0 0.00 0.00 0.00 68 1024.5
20260905182714 17 272 0.0 0.0 0.00 0.00 0.00 68 1024.4
20260905182213 17 278 0.0 0.0 0.00 0.00 0.00 67 1024.3
20260905181943 17 284 0.0 0.0 0.00 0.00 0.00 67 1024.3
20260905181210 17 243 0.0 0.0 0.00 0.00 0.00 67 1024.2
20260905180931 17 254 0.0 0.0 0.00 0.00 0.00 66 1024.2
20260905180210 17 278 0.0 0.0 0.00 0.00 0.00 66 1024.2
20260905175710 17 294 0.0 0.0 0.00 0.00 0.00 65 1024.1
20260905175426 17 286 0.0 0.0 0.00 0.00 0.00 65 1024.1
20260905174708 17 293 0.0 0.0 0.00 0.00 0.00 65 1024.0
20260905174208 18 299 0.0 0.0 0.00 0.00 0.00 65 1024.0
20260905173925 18 274 0.0 0.0 0.00 0.00 0.00 65 1023.9
20260905173207 18 299 0.0 0.0 0.00 0.00 0.00 65 1023.8
20260905172704 18 303 0.0 0.0 0.00 0.00 0.00 65 1023.8
20260905172204 18 305 0.0 0.0 0.00 0.00 0.00 64 1023.6
20260905171703 18 17 0.0 0.0 0.00 0.00 0.00 64 1023.6
20260905171202 18 286 0.0 0.0 0.00 0.00 0.00 63 1023.6
20260905170700 18 311 0.0 0.0 0.00 0.00 0.00 63 1023.5
20260905170159 18 285 0.0 0.0 0.00 0.00 0.00 63 1023.5
20260905165659 18 337 0.0 0.0 0.00 0.00 0.00 63 1023.4
20260905165159 18 286 0.0 0.0 0.00 0.00 0.00 62 1023.5
20260905164700 18 268 0.0 0.0 0.00 0.00 0.00 63 1023.3
20260905164202 18 319 0.0 0.0 0.00 0.00 0.00 62 1023.2
20260905163921 18 293 0.0 0.0 0.00 0.00 0.00 63 1023.2
20260905163157 18 308 0.0 0.0 0.00 0.00 0.00 64 1023.1
20260905162921 18 293 0.0 0.0 0.00 0.00 0.00 64 1023.0
20260905162156 18 309 0.0 0.0 0.00 0.00 0.00 64 1023.0
20260905161914 18 324 0.0 0.0 0.00 0.00 0.00 64 1023.0
20260905161155 19 271 0.0 0.0 0.00 0.00 0.00 64 1022.9
20260905160656 19 293 0.0 0.0 0.00 0.00 0.00 63 1022.8
20260905160156 19 338 0.0 0.0 0.00 0.00 0.00 64 1022.7
20260905160142 19 37 0.0 0.0 0.00 0.00 0.00 65 1022.7
20260905155156 19 315 0.0 0.0 0.00 0.00 0.00 64 1022.7
20260905154655 19 283 0.0 0.0 0.00 0.00 0.00 64 1022.6
20260905154156 19 255 0.0 0.0 0.00 0.00 0.00 64 1022.5
20260905153658 19 242 0.0 0.0 0.00 0.00 0.00 64 1022.5
20260905153155 19 307 0.0 0.0 0.00 0.00 0.00 65 1022.5
20260905152919 19 282 0.0 0.0 0.00 0.00 0.00 65 1022.4
20260905152156 19 287 0.0 0.0 0.00 0.00 0.00 64 1022.3
20260905151655 19 213 0.0 0.0 0.00 0.00 0.00 64 1022.4
20260905151155 19 270 0.0 0.0 0.00 0.00 0.00 64 1022.3
20260905150653 19 338 0.0 0.0 0.00 0.00 0.00 65 1022.3
20260905150416 19 309 0.0 0.0 0.00 0.00 0.00 64 1022.3
20260905145653 20 237 0.0 0.0 0.00 0.00 0.00 65 1022.3
20260905145409 20 309 0.0 0.0 0.00 0.00 0.00 65 1022.2
20260905144651 20 280 0.0 0.0 0.00 0.00 0.00 66 1022.2
20260905144152 19 305 0.0 0.0 0.00 0.00 0.00 66 1022.2
20260905143651 19 324 0.0 0.0 0.00 0.00 0.00 66 1022.2
20260905143152 18 331 0.0 0.0 0.00 0.00 0.00 66 1022.3
20260905142914 18 55 0.0 0.0 0.00 0.00 0.00 66 1022.2
20260905142411 18 288 0.0 0.0 0.00 0.00 0.00 66 1022.3
20260905141917 19 329 0.0 0.0 0.00 0.00 0.00 66 1022.2
20260905141147 18 335 0.0 0.0 0.00 0.00 0.00 66 1022.2
20260905140647 18 152 0.0 0.0 0.00 0.00 0.00 66 1022.3
20260905140148 18 343 0.0 0.0 0.00 0.00 0.00 65 1022.4
20260905135650 19 328 0.0 0.0 0.00 0.00 0.00 64 1022.2
20260905135148 19 339 0.0 0.0 0.00 0.00 0.00 63 1022.1
20260905134910 19 294 0.0 0.0 0.00 0.00 0.00 64 1022.1
20260905134147 19 281 0.0 0.0 0.00 0.00 0.00 63 1022.1
20260905133644 19 313 0.0 0.0 0.00 0.00 0.00 64 1022.1
20260905133143 19 282 0.0 0.0 0.00 0.00 0.00 64 1022.1
20260905132644 19 329 0.0 0.0 0.00 0.00 0.00 63 1022.0
20260905132410 19 343 0.0 0.0 0.00 0.00 0.00 64 1022.0
20260905131644 19 247 0.0 0.0 0.00 0.00 0.00 65 1021.9
20260905131144 19 296 0.0 0.0 0.00 0.00 0.00 65 1021.8
20260905131122 19 274 0.0 0.0 0.00 0.00 0.00 65 1021.9
20260905130143 19 245 0.0 0.0 0.00 0.00 0.00 65 1021.9
20260905125643 19 200 0.0 0.0 0.00 0.00 0.00 65 1021.9
20260905125405 19 275 0.0 0.0 0.00 0.00 0.00 64 1021.9
20260905124643 19 315 0.0 0.0 0.00 0.00 0.00 66 1021.8
20260905124406 19 324 0.0 0.0 0.00 0.00 0.00 68 1021.7
20260905123643 18 313 0.0 0.0 0.00 0.00 0.00 69 1021.8
20260905123144 18 279 0.0 0.0 0.00 0.00 0.00 68 1021.7
20260905122645 18 227 0.0 0.0 0.00 0.00 0.00 68 1021.7
20260905122143 18 333 0.0 0.0 0.00 0.00 0.00 68 1021.7
20260905121655 18 42 0.0 0.0 0.00 0.00 0.00 69 1021.7
20260905121141 18 280 0.0 0.0 0.00 0.00 0.00 68 1021.6
20260905120650 18 323 0.0 0.0 0.00 0.00 0.00 68 1021.7
20260905120354 18 319 0.0 0.0 0.00 0.00 0.00 68 1021.6
20260905115638 18 204 0.0 0.0 0.00 0.00 0.00 68 1021.5
20260905115135 18 296 0.0 0.0 0.00 0.00 0.00 66 1021.5
20260905114635 18 54 0.0 0.0 0.00 0.00 0.00 66 1021.5
20260905114135 18 315 0.0 0.0 0.00 0.00 0.00 67 1021.4
20260905113625 18 40 0.0 0.0 0.00 0.00 0.00 66 1021.4
20260905113027 18 201 0.0 0.0 0.00 0.00 0.00 67 1021.4
20260905112528 18 280 0.0 0.0 0.00 0.00 0.00 66 1021.4
20260905112028 18 302 0.0 0.0 0.00 0.00 0.00 67 1021.4
20260905111527 18 267 0.0 0.0 0.00 0.00 0.00 65 1021.0
20260905111027 18 279 0.0 0.0 0.00 0.00 0.00 66 1021.1
20260905110527 18 279 0.0 0.0 0.00 0.00 0.00 66 1021.1
20260905110028 18 312 0.0 0.0 0.00 0.00 0.00 66 1021.3
20260905105527 18 328 0.0 0.0 0.00 0.00 0.00 68 1021.1
20260905105023 18 313 0.0 0.0 0.00 0.00 0.00 68 1021.1
20260905104524 18 353 0.0 0.0 0.00 0.00 0.00 68 1021.0
20260905104023 18 290 0.0 0.0 0.00 0.00 0.00 68 1020.9
20260905103523 18 293 0.0 0.0 0.00 0.00 0.00 68 1021.0
20260905103023 18 250 0.0 0.0 0.00 0.00 0.00 68 1021.0
20260905102524 18 178 0.0 0.0 0.00 0.00 0.00 68 1020.9
20260905102023 18 221 0.0 0.0 0.00 0.00 0.00 69 1021.0
20260905101523 18 298 0.0 0.0 0.00 0.00 0.00 69 1021.0
20260905101023 17 242 0.0 0.0 0.00 0.00 0.00 69 1021.0
20260905100519 17 269 0.0 0.0 0.00 0.00 0.00 69 1021.1
20260905100020 17 343 0.0 0.0 0.00 0.00 0.00 70 1021.1
20260905095519 17 294 0.0 0.0 0.00 0.00 0.00 70 1020.9
20260905095020 17 285 0.0 0.0 0.00 0.00 0.00 73 1020.9
20260905094522 17 266 0.0 0.0 0.00 0.00 0.00 73 1020.8
20260905094020 17 338 0.0 0.0 0.00 0.00 0.00 74 1020.9
20260905093521 17 263 0.0 0.0 0.00 0.00 0.00 74 1020.8
20260905093019 17 359 0.0 0.0 0.00 0.00 0.00 76 1020.8
20260905092519 17 353 0.0 0.0 0.00 0.00 0.00 77 1020.7
20260905092015 16 317 0.0 0.0 0.00 0.00 0.00 77 1020.6
20260905091515 16 272 0.0 0.0 0.00 0.00 0.00 77 1020.6
20260905091015 16 294 0.0 0.0 0.00 0.00 0.00 79 1020.7
20260905090517 17 246 0.0 0.0 0.00 0.00 0.00 80 1020.6
20260905090015 16 292 0.0 0.0 0.00 0.00 0.00 80 1020.5
20260905085516 16 251 0.0 0.0 0.00 0.00 0.00 81 1020.5
20260905085015 16 261 0.0 0.0 0.00 0.00 0.00 82 1020.5
20260905084515 16 280 0.0 0.0 0.00 0.00 0.00 83 1020.5
20260905084015 16 268 0.0 0.0 0.00 0.00 0.00 84 1020.5
20260905083511 15 258 0.0 0.0 0.00 0.00 0.00 86 1020.4
20260905083228 15 297 0.0 0.0 0.00 0.00 0.00 87 1020.4
20260905082511 15 310 0.0 0.0 0.00 0.00 0.00 88 1020.4
20260905082013 15 250 0.0 0.0 0.00 0.00 0.00 89 1020.5
20260905081511 15 304 0.0 0.0 0.00 0.00 0.00 89 1020.4
20260905081011 15 305 0.0 0.0 0.00 0.00 0.00 89 1020.4
20260905080511 15 331 0.0 0.0 0.00 0.00 0.00 90 1020.2
20260905080011 15 290 0.0 0.0 0.00 0.00 0.00 90 1020.2
20260905075514 15 309 0.0 0.0 0.00 0.00 0.00 90 1020.1
20260905075007 14 303 0.0 0.0 0.00 0.00 0.00 90 1020.0
20260905074505 14 296 0.0 0.0 0.00 0.00 0.00 91 1020.0
20260905074005 14 270 0.0 0.0 0.00 0.00 0.00 91 1019.8
20260905073505 14 279 0.0 0.0 0.00 0.00 0.00 91 1019.8
20260905073005 14 301 0.0 0.0 0.00 0.00 0.00 91 1019.8
20260905072736 14 303 0.0 0.0 0.00 0.00 0.00 91 1019.7
20260905072006 14 278 0.0 0.0 0.00 0.00 0.00 91 1019.6
20260905071503 14 265 0.0 0.0 0.00 0.00 0.00 91 1019.5
20260905071003 14 267 0.0 0.0 0.00 0.00 0.00 91 1019.5
20260905070503 13 293 0.0 0.0 0.00 0.00 0.00 91 1019.4
20260905070003 13 292 0.0 0.0 0.00 0.00 0.00 91 1019.4
20260905065721 13 177 0.0 0.0 0.00 0.00 0.00 91 1019.4
20260905064950 13 178 0.0 0.0 0.00 0.00 0.00 91 1019.4
20260905064925 13 178 0.0 0.0 0.00 0.00 0.00 91 1019.4
20260905063938 13 180 0.0 0.0 0.00 0.00 0.00 91 1019.3
20260905063433 13 146 0.0 0.0 0.00 0.00 0.00 91 1019.2
20260905062926 13 146 0.0 0.0 0.00 0.00 0.00 91 1019.1
20260905062641 12 146 0.0 0.0 0.00 0.00 0.00 91 1019.0
20260905061914 12 146 0.0 0.0 0.00 0.00 0.00 91 1019.0
20260905061409 12 146 0.0 0.0 0.00 0.00 0.00 91 1019.0
20260905060916 12 146 0.0 0.0 0.00 0.00 0.00 91 1019.0
20260905060356 11 146 0.0 0.0 0.00 0.00 0.00 91 1019.0
20260905060334 11 146 0.0 0.0 0.00 0.00 0.00 91 1018.9
20260905055601 11 146 0.0 0.0 0.00 0.00 0.00 91 1019.0
20260905054839 11 146 0.0 0.0 0.00 0.00 0.00 91 1019.0
20260905054332 11 146 0.0 0.0 0.00 0.00 0.00 91 1018.9
20260905053827 11 149 0.0 0.0 0.00 0.00 0.00 91 1018.8
20260905053322 11 149 0.0 0.0 0.00 0.00 0.00 91 1018.9
20260905053034 11 149 0.0 0.0 0.00 0.00 0.00 91 1018.9
20260905052311 11 149 0.0 0.0 0.00 0.00 0.00 91 1018.8
20260905051802 11 149 0.0 0.0 0.00 0.00 0.00 91 1018.6
20260905051257 10 149 0.0 0.0 0.00 0.00 0.00 91 1018.6
20260905050750 10 149 0.0 0.0 0.00 0.00 0.00 91 1018.6
20260905050244 10 149 0.0 0.0 0.00 0.00 0.00 91 1018.5
20260905045738 10 149 0.0 0.0 0.00 0.00 0.00 91 1018.4
20260905045457 11 149 0.0 0.0 0.00 0.00 0.00 91 1018.4
20260905044726 11 149 0.0 0.0 0.00 0.00 0.00 91 1018.2
20260905044220 11 149 0.0 0.0 0.00 0.00 0.00 91 1018.2
20260905043714 11 149 0.0 0.0 0.00 0.00 0.00 91 1018.1
20260905043208 11 149 0.0 0.0 0.00 0.00 0.00 91 1018.0
20260905042702 11 149 0.0 0.0 0.00 0.00 0.00 91 1018.0
20260905042156 11 149 0.0 0.0 0.00 0.00 0.00 91 1017.8
20260905041651 11 149 0.0 0.0 0.00 0.00 0.00 91 1017.7
20260905041629 11 149 0.0 0.0 0.00 0.00 0.00 91 1017.7
20260905040638 11 149 0.0 0.0 0.00 0.00 0.00 91 1017.8
20260905040133 11 149 0.0 0.0 0.00 0.00 0.00 90 1017.6
20260905035626 11 149 0.0 0.0 0.00 0.00 0.00 91 1017.6
20260905035120 11 149 0.0 0.0 0.00 0.00 0.00 90 1017.6
20260905034614 11 149 0.0 0.0 0.00 0.00 0.00 90 1017.7
20260905034108 11 149 0.0 0.0 0.00 0.00 0.00 91 1017.7
20260905033602 11 149 0.0 0.0 0.00 0.00 0.00 91 1017.6
20260905033056 11 149 0.0 0.0 0.00 0.00 0.00 91 1017.7
20260905032550 11 149 0.0 0.0 0.00 0.00 0.00 91 1017.6
20260905032045 11 149 0.0 0.0 0.00 0.00 0.00 91 1017.6
20260905031538 11 149 0.0 0.0 0.00 0.00 0.00 90 1017.7
20260905031034 11 149 0.0 0.0 0.00 0.00 0.00 90 1017.7
20260905030527 11 149 0.0 0.0 0.00 0.00 0.00 90 1017.5
20260905030020 11 149 0.0 0.0 0.00 0.00 0.00 90 1017.6
20260905025955 11 149 0.0 0.0 0.00 0.00 0.00 90 1017.5
20260905025010 11 149 0.0 0.0 0.00 0.00 0.00 90 1017.4
20260905024515 11 149 0.0 0.0 0.00 0.00 0.00 90 1017.4
20260905023957 11 149 0.0 0.0 0.00 0.00 0.00 90 1017.4
20260905023451 11 149 0.0 0.0 0.00 0.00 0.00 90 1017.4
20260905022944 11 149 0.0 0.0 0.00 0.00 0.00 90 1017.3
20260905022439 11 149 0.0 0.0 0.00 0.00 0.00 90 1017.2
20260905021933 11 149 0.0 0.0 0.00 0.00 0.00 90 1017.2
20260905021429 12 149 0.0 0.0 0.00 0.00 0.00 90 1017.3
20260905021146 12 149 0.0 0.0 0.00 0.00 0.00 90 1017.1
20260905020414 12 148 0.0 0.0 0.00 0.00 0.00 90 1017.1
20260905015912 12 148 0.0 0.0 0.00 0.00 0.00 90 1017.2
20260905015622 12 148 0.0 0.0 0.00 0.00 0.00 90 1017.2
20260905014856 12 148 0.0 0.0 0.00 0.00 0.00 90 1017.2
20260905014350 12 148 0.0 0.0 0.00 0.00 0.00 90 1017.2
20260905013845 12 206 0.0 0.0 0.00 0.00 0.00 90 1017.2
20260905013341 12 207 0.0 0.0 0.00 0.00 0.00 90 1017.2
20260905012832 12 214 0.0 0.0 0.00 0.00 0.00 90 1017.1
20260905012327 12 214 0.0 0.0 0.00 0.00 0.00 90 1017.2
20260905011820 12 214 0.0 0.0 0.00 0.00 0.00 90 1017.1
20260905011319 12 214 0.0 0.0 0.00 0.00 0.00 90 1017.1
20260905010819 12 214 0.0 0.0 0.00 0.00 0.00 90 1017.1
20260905010317 12 214 0.0 0.0 0.00 0.00 0.00 90 1017.1
20260905005815 12 215 0.0 0.0 0.00 0.00 0.00 90 1017.1
20260905005312 12 215 0.0 0.0 0.00 0.00 0.00 90 1017.1
20260905005032 13 215 0.0 0.0 0.00 0.00 0.00 90 1017.1
20260905004312 13 215 0.0 0.0 0.00 0.00 0.00 89 1017.1
20260905003812 13 215 0.0 0.0 0.00 0.00 0.00 90 1017.1
20260905003312 13 215 0.0 0.0 0.00 0.00 0.00 89 1017.1
20260905002811 13 215 0.0 0.0 0.00 0.00 0.00 90 1017.1
20260905002309 13 216 0.0 0.0 0.00 0.00 0.00 90 1017.1
20260905001809 13 216 0.0 0.0 0.00 0.00 0.00 89 1017.1
20260905001311 13 228 0.0 0.0 0.00 0.00 0.00 89 1017.1
20260905000807 13 228 0.0 0.0 0.00 0.00 0.00 89 1017.0
20260905000527 13 228 0.0 0.0 0.00 0.00 0.00 89 1017.0
20260904235803 13 231 0.0 0.0 0.00 0.00 0.00 89 1017.0
20260904235522 14 232 0.0 0.0 0.00 0.00 0.00 89 1016.8
20260904234802 14 232 0.0 0.0 0.00 0.00 0.00 89 1017.0
20260904234300 14 232 0.0 0.0 0.00 0.00 0.00 89 1016.8
20260904233758 14 232 0.0 0.0 0.00 0.00 0.00 89 1016.7
20260904233253 14 232 0.0 0.0 0.00 0.00 0.00 89 1016.6
20260904232748 14 241 0.0 0.0 0.00 0.00 0.00 89 1016.6
20260904232242 15 242 0.0 0.0 0.00 0.00 0.00 89 1016.6
20260904231742 15 245 0.0 0.0 0.00 0.00 0.00 89 1016.6
20260904231505 15 245 0.0 0.0 0.00 0.00 0.00 89 1016.5
20260904230740 15 245 0.0 0.0 0.00 0.00 0.00 89 1016.6
20260904230245 15 246 0.0 0.0 0.00 0.00 0.00 89 1016.5
20260904225742 15 252 0.0 0.0 0.00 0.00 0.00 89 1016.6
20260904225240 15 252 0.0 0.0 0.00 0.00 0.00 89 1016.5
20260904224958 15 257 0.0 0.0 0.00 0.00 0.00 89 1016.4
20260904224236 -17 0.0 0.0 0.00 0.00 0.00 1016.3
20260904223918 -17 0.0 0.0 0.00 0.00 0.00 1016.3
20260904223410 -17 0.0 0.0 0.00 0.00 0.00 1016.4
20260904222643 -17 0.0 0.0 0.00 0.00 0.00 1016.4
20260904222053 -17 0.0 0.0 0.00 0.00 0.00 1016.4
20260904221552 15 159 0.0 0.0 0.00 0.00 0.00 88 1016.3
20260904221223 15 159 0.0 0.0 0.00 0.00 0.00 88 1016.2
20260904220502 15 159 0.0 0.0 0.00 0.00 0.00 88 1016.3
20260904215958 15 159 0.0 0.0 0.00 0.00 0.00 88 1016.2
20260904215458 15 159 0.0 0.0 0.00 0.00 0.00 88 1016.1
20260904214958 15 159 0.0 0.0 0.00 0.00 0.00 88 1016.0
20260904214458 15 159 0.0 0.0 0.00 0.00 0.00 88 1016.1
20260904214217 15 168 0.0 0.0 0.00 0.00 0.00 88 1016.0
20260904213456 15 161 0.0 0.0 0.00 0.00 0.00 88 1016.0
20260904212956 15 161 0.0 0.0 0.00 0.00 0.00 88 1016.0
20260904212726 15 161 0.0 0.0 0.00 0.00 0.00 88 1015.6
20260904211957 15 161 0.0 0.0 0.00 0.00 0.00 88 1015.6
20260904211456 15 198 0.0 0.0 0.00 0.00 0.00 88 1015.8
20260904210956 15 195 0.0 0.0 0.00 0.00 0.00 88 1015.7
20260904210457 15 195 0.0 0.0 0.00 0.00 0.00 88 1015.8
20260904205955 15 222 0.0 0.0 0.00 0.00 0.00 88 1015.6
20260904205454 15 222 0.0 0.0 0.00 0.00 0.00 88 1015.6
20260904204954 15 222 0.0 0.0 0.00 0.00 0.00 88 1015.7
20260904204453 15 222 0.0 0.0 0.00 0.00 0.00 88 1015.6
20260904204215 15 217 0.0 0.0 0.00 0.00 0.00 88 1015.4
20260904203453 15 226 0.0 0.0 0.00 0.00 0.00 88 1015.4
20260904202953 15 224 0.0 0.0 0.00 0.00 0.00 88 1015.2
20260904202450 15 184 0.0 0.0 0.00 0.00 0.00 88 1015.3
20260904201949 15 183 0.0 0.0 0.00 0.00 0.00 88 1015.4